This demonstration page uses our WeatherBlox Daily Observations layout. Learn more.

Left ArrowRight Arrow

36.17497, -115.13722

Hourly Observations for May 6, 2017

Temp ( °F °C ) Dew Point ( °F °C ) Humidity (%) Winds ( mph kmh ) Pressure ( in mb ) Visibility ( mi km ) Precip ( " mm )
12:53 am 00:53 Clear 81 27.2 27 -2.8 14 14 Calm 29.60 1002 10 16 0.00 0.00
1:53 am 01:53 Clear 79 26.1 28 -2.2 15 15 SSW 8 13 29.58 1002 10 16 0.00 0.00
2:53 am 02:53 Clear 78 25.6 26 -3.3 15 15 S 9 15 29.57 1002 10 16 0.00 0.00
3:53 am 03:53 Clear 76 24.4 26 -3.3 16 16 S 10 17 29.57 1001 10 16 0.00 0.00
4:53 am 04:53 Clear 76 24.4 26 -3.3 16 16 S 12 19 29.57 1002 10 16 0.00 0.00
5:53 am 05:53 Sunny 75 23.9 25 -3.9 15 15 Calm 29.58 1002 10 16 0.00 0.00
6:53 am 06:53 Sunny 75 23.9 28 -2.2 18 18 SSE 8 13 29.60 1002 10 16 0.00 0.00
7:53 am 07:53 Sunny 77 25 30 -1.1 18 18 SSE 8 13 29.61 1003 10 16 0.00 0.00
8:53 am 08:53 Sunny 81 27.2 31 -0.6 16 16 S 10 17 29.60 1002 10 16 0.00 0.00
9:53 am 09:53 Sunny 83 28.3 29 -1.7 14 14 S 17 28 29.59 1002 10 16 0.00 0.00
10:53 am 10:53 Sunny 84 28.9 31 -0.6 15 15 S 10 17 29.57 1002 10 16 0.00 0.00
11:53 am 11:53 Mostly Sunny 87 30.6 32 0 14 14 S 38 61 29.52 1000 10 16 0.00 0.00
12:53 pm 12:53 Mostly Sunny 87 30.6 29 -1.7 12 12 S 29 46 29.51 999 10 16 0.00 0.00
1:53 pm 13:53 Sunny 88 31.1 14 -10 6 6 SSE 29 46 29.49 999 10 16 0.00 0.00
2:53 pm 14:53 Sunny 89 31.7 17 -8.3 7 7 S 30 48 29.47 998 10 16 0.00 0.00
3:53 pm 15:53 Sunny 87 30.6 24 -4.4 10 10 SSE 29 46 29.45 997 10 16 0.00 0.00
4:53 pm 16:53 Sunny 85 29.4 23 -5 10 10 S 32 52 29.43 997 10 16 0.00 0.00
5:53 pm 17:53 Mostly Sunny 83 28.3 27 -2.8 13 13 S 21 33 29.43 997 10 16 0.00 0.00
6:53 pm 18:53 Sunny 81 27.2 26 -3.3 13 13 S 28 44 29.42 996 10 16 0.00 0.00
7:14 pm 19:14 Sunny 79 26 36 2 21 21 SW 15 24 29.35 994 10 16 0.00 0.00
7:53 pm 19:53 Clear 75 23.9 37 2.8 25 25 SW 16 26 29.46 998 10 16 0.00 0.00
8:53 pm 20:53 Clear 73 22.8 37 2.8 27 27 WSW 9 15 29.49 999 10 16 0.00 0.00
9:53 pm 21:53 Clear 72 22.2 37 2.8 28 28 SSW 8 13 29.52 1000 10 16 0.00 0.00
10:53 pm 22:53 Cloudy with Light Rain 66 18.9 46 7.8 49 49 SSW 12 19 29.57 1001 10 16 0.00 0.03
11:53 pm 23:53 Mostly Cloudy 64 17.8 47 8.3 54 54 S 8 13 29.57 1001 10 16 0.00 0.03

Powered by AerisWeather